FALCON 9 DEB (53644 NORAD) Tracking and Keplerian Element Data

This shows tracking and keplerian element data for the satellite.

Feedback or suggestion? Click here.




ElementValue
Catalog53644
NameFALCON 9 DEB
Epoch Orbit117
Epoch Day247.39577611
Epoch Year2022
RAAN251.765
Inclination53.2172
Eccentricity0.0062336
Argument of Perigee66.7727
Mean Anonmoly293.9854
Mean Motion16.03905587
Decay Rate0.00630876
L11 53644U 22104BJ 22247.39577611 .00630876 20001-3 74405-3 0 9996
L22 53644 53.2172 251.7650 0062336 66.7727 293.9854 16.03905587 1178



Live tracking and technical data element details for FALCON 9 DEB (NORAD 53644). FALCON 9 DEB can be tracked NOW for your location showing map with azimuth and elevation plus other details from your city location.







IsCatalogInMostPopularTable: catalog: 53644, numindb: 1
Update: records affected: 1



GetName: 53644 FALCON 9 DEB

Hit Count: updated at: Tue, 29 Nov 2022 00:33:22 GMT